Time,TemperatureF,DewpointF,PressureIn,WindDirection,WindDirectionDegrees,WindSpeedMPH,WindSpeedGustMPH,Humidity,HourlyPrecipIn,Conditions,Clouds,dailyrainin,SolarRadiationWatts/m^2,SoftwareType,DateUTC
2013-02-03 00:11:00,47.0,47.0,-100.00,WNW,301,0.0,4.0,100,-99.99,,,0.00,0.000000,,2013-02-03 06:11:00,
2013-02-03 00:21:00,47.0,47.0,-100.00,WNW,301,0.0,4.0,100,-99.99,,,0.00,0.000000,,2013-02-03 06:21:00,
2013-02-03 00:32:00,47.0,47.0,-100.00,WNW,301,0.0,4.0,100,-99.99,,,0.00,0.000000,,2013-02-03 06:32:00,
2013-02-03 00:41:00,47.0,47.0,-100.00,WNW,301,0.0,4.0,100,-99.99,,,0.00,0.000000,,2013-02-03 06:41:00,
2013-02-03 00:51:00,50.0,50.0,-100.00,WNW,297,1.0,2.0,100,0.00,,,0.00,0.000000,,2013-02-03 06:51:00,
2013-02-03 01:11:00,50.0,50.0,-100.00,WNW,297,1.0,2.0,100,0.00,,,0.00,0.000000,,2013-02-03 07:11:00,
2013-02-03 01:21:00,50.0,50.0,-100.00,WNW,297,1.0,2.0,100,0.00,,,0.00,0.000000,,2013-02-03 07:21:00,
2013-02-03 01:31:00,50.0,50.0,-100.00,WNW,297,1.0,2.0,100,0.00,,,0.00,0.000000,,2013-02-03 07:31:00,
2013-02-03 01:42:00,50.0,50.0,-100.00,WNW,297,1.0,2.0,100,0.00,,,0.00,0.000000,,2013-02-03 07:42:00,
2013-02-03 01:51:00,52.0,52.0,-100.00,NNW,344,1.0,9.0,100,0.00,,,0.00,0.000000,,2013-02-03 07:51:00,
2013-02-03 02:11:00,52.0,52.0,-100.00,NNW,344,1.0,9.0,100,0.00,,,0.00,0.000000,,2013-02-03 08:11:00,
2013-02-03 02:22:00,52.0,52.0,-100.00,NNW,344,1.0,9.0,100,0.00,,,0.00,0.000000,,2013-02-03 08:22:00,
2013-02-03 02:32:00,52.0,52.0,-100.00,NNW,344,1.0,9.0,100,0.00,,,0.00,0.000000,,2013-02-03 08:32:00,
2013-02-03 02:41:00,52.0,52.0,-100.00,NNW,344,1.0,9.0,100,0.00,,,0.00,0.000000,,2013-02-03 08:41:00,
2013-02-03 02:51:00,49.0,49.0,-100.00,NNW,333,0.0,2.0,100,0.00,,,0.00,0.000000,,2013-02-03 08:51:00,
2013-02-03 03:11:00,49.0,49.0,-100.00,NNW,333,0.0,2.0,100,0.00,,,0.00,0.000000,,2013-02-03 09:11:00,
2013-02-03 03:21:00,49.0,49.0,-100.00,NNW,333,0.0,2.0,100,0.00,,,0.00,0.000000,,2013-02-03 09:21:00,
2013-02-03 03:31:00,49.0,49.0,-100.00,NNW,333,0.0,2.0,100,0.00,,,0.00,0.000000,,2013-02-03 09:31:00,
2013-02-03 03:42:00,49.0,49.0,-100.00,NNW,333,0.0,2.0,100,0.00,,,0.00,0.000000,,2013-02-03 09:42:00,
2013-02-03 03:51:00,47.0,47.0,-100.00,North,3,1.0,3.0,100,0.00,,,0.00,0.000000,,2013-02-03 09:51:00,
2013-02-03 04:11:00,47.0,47.0,-100.00,North,3,1.0,3.0,100,0.00,,,0.00,0.000000,,2013-02-03 10:11:00,
2013-02-03 04:21:00,47.0,47.0,-100.00,North,3,1.0,3.0,100,0.00,,,0.00,0.000000,,2013-02-03 10:21:00,
2013-02-03 04:31:00,47.0,47.0,-100.00,North,3,1.0,3.0,100,0.00,,,0.00,0.000000,,2013-02-03 10:31:00,
2013-02-03 04:42:00,47.0,47.0,-100.00,North,3,1.0,3.0,100,0.00,,,0.00,0.000000,,2013-02-03 10:42:00,
2013-02-03 04:51:00,46.0,46.0,-100.00,North,7,1.0,3.0,100,0.00,,,0.00,0.000000,,2013-02-03 10:51:00,
2013-02-03 05:11:00,46.0,46.0,-100.00,North,7,1.0,3.0,100,0.00,,,0.00,0.000000,,2013-02-03 11:11:00,
2013-02-03 05:22:00,46.0,46.0,-100.00,North,7,1.0,3.0,100,0.00,,,0.00,0.000000,,2013-02-03 11:22:00,
2013-02-03 05:32:00,46.0,46.0,-100.00,North,7,1.0,3.0,100,0.00,,,0.00,0.000000,,2013-02-03 11:32:00,
2013-02-03 05:42:00,46.0,46.0,-100.00,North,7,1.0,3.0,100,0.00,,,0.00,0.000000,,2013-02-03 11:42:00,
2013-02-03 05:51:00,42.0,42.0,-100.00,SSW,194,0.0,2.0,100,0.00,,,0.00,0.000000,,2013-02-03 11:51:00,
2013-02-03 06:11:00,42.0,42.0,-100.00,SSW,194,0.0,2.0,100,0.00,,,0.00,0.000000,,2013-02-03 12:11:00,
2013-02-03 06:22:00,42.0,42.0,-100.00,SSW,194,0.0,2.0,100,0.00,,,0.00,0.000000,,2013-02-03 12:22:00,
2013-02-03 06:32:00,42.0,42.0,-100.00,SSW,194,0.0,2.0,100,0.00,,,0.00,0.000000,,2013-02-03 12:32:00,
2013-02-03 06:42:00,42.0,42.0,-100.00,SSW,194,0.0,2.0,100,0.00,,,0.00,0.000000,,2013-02-03 12:42:00,
2013-02-03 06:51:00,40.0,40.0,-100.00,NNE,12,0.0,2.0,100,0.00,,,0.00,1.000000,,2013-02-03 12:51:00,
2013-02-03 07:21:00,40.0,40.0,-100.00,NNE,12,0.0,2.0,100,0.00,,,0.00,1.000000,,2013-02-03 13:21:00,
2013-02-03 07:32:00,40.0,40.0,-100.00,NNE,12,0.0,2.0,100,0.00,,,0.00,1.000000,,2013-02-03 13:32:00,
2013-02-03 07:42:00,40.0,40.0,-100.00,NNE,12,0.0,2.0,100,0.00,,,0.00,1.000000,,2013-02-03 13:42:00,
2013-02-03 07:51:00,46.0,46.0,-100.00,NW,316,0.0,3.0,100,0.00,,,-99.99,64.000000,,2013-02-03 13:51:00,
2013-02-03 08:11:00,46.0,46.0,-100.00,NW,316,0.0,3.0,100,0.00,,,-99.99,64.000000,,2013-02-03 14:11:00,
2013-02-03 08:21:00,46.0,46.0,-100.00,NW,316,0.0,3.0,100,0.00,,,-99.99,64.000000,,2013-02-03 14:21:00,
2013-02-03 08:32:00,46.0,46.0,-100.00,NW,316,0.0,3.0,100,0.00,,,-99.99,64.000000,,2013-02-03 14:32:00,
2013-02-03 08:42:00,46.0,46.0,-100.00,NW,316,0.0,3.0,100,0.00,,,-99.99,64.000000,,2013-02-03 14:42:00,
2013-02-03 08:51:00,58.0,47.0,-100.00,ENE,65,2.0,6.0,67,0.00,,,0.00,280.000000,,2013-02-03 14:51:00,
2013-02-03 09:11:00,58.0,47.0,-100.00,ENE,65,2.0,6.0,67,0.00,,,0.00,280.000000,,2013-02-03 15:11:00,
2013-02-03 09:22:00,58.0,47.0,-100.00,ENE,65,2.0,6.0,67,0.00,,,0.00,280.000000,,2013-02-03 15:22:00,
2013-02-03 09:33:00,58.0,47.0,-100.00,ENE,65,2.0,6.0,67,0.00,,,0.00,280.000000,,2013-02-03 15:33:00,
2013-02-03 09:42:00,58.0,47.0,-100.00,ENE,65,2.0,6.0,67,0.00,,,0.00,280.000000,,2013-02-03 15:42:00,
2013-02-03 09:51:00,63.0,43.0,-100.00,NNE,33,1.0,6.0,48,0.00,,,0.00,451.000000,,2013-02-03 15:51:00,
2013-02-03 10:22:00,63.0,43.0,-100.00,NNE,33,1.0,6.0,48,0.00,,,0.00,451.000000,,2013-02-03 16:22:00,
2013-02-03 10:33:00,63.0,43.0,-100.00,NNE,33,1.0,6.0,48,0.00,,,0.00,451.000000,,2013-02-03 16:33:00,
2013-02-03 10:42:00,63.0,43.0,-100.00,NNE,33,1.0,6.0,48,0.00,,,0.00,451.000000,,2013-02-03 16:42:00,
2013-02-03 10:51:00,64.0,38.0,-100.00,North,359,5.0,11.0,38,0.00,,,0.00,605.000000,,2013-02-03 16:51:00,
2013-02-03 11:11:00,64.0,38.0,-100.00,North,359,5.0,11.0,38,0.00,,,0.00,605.000000,,2013-02-03 17:11:00,
2013-02-03 11:22:00,64.0,38.0,-100.00,North,359,5.0,11.0,38,0.00,,,0.00,605.000000,,2013-02-03 17:22:00,
2013-02-03 11:32:00,64.0,38.0,-100.00,North,359,5.0,11.0,38,0.00,,,0.00,605.000000,,2013-02-03 17:32:00,
2013-02-03 11:42:00,64.0,38.0,-100.00,North,359,5.0,11.0,38,0.00,,,0.00,605.000000,,2013-02-03 17:42:00,
2013-02-03 11:51:00,66.0,33.0,-100.00,NNE,12,6.0,13.0,29,0.00,,,0.00,696.000000,,2013-02-03 17:51:00,
2013-02-03 12:23:00,66.0,33.0,-100.00,NNE,12,6.0,13.0,29,0.00,,,0.00,696.000000,,2013-02-03 18:23:00,
2013-02-03 12:33:00,66.0,33.0,-100.00,NNE,12,6.0,13.0,29,0.00,,,0.00,696.000000,,2013-02-03 18:33:00,
2013-02-03 12:42:00,66.0,33.0,-100.00,NNE,12,6.0,13.0,29,0.00,,,0.00,696.000000,,2013-02-03 18:42:00,
2013-02-03 12:51:00,68.0,31.0,-100.00,NNW,328,5.0,13.0,25,0.00,,,0.00,722.000000,,2013-02-03 18:51:00,
2013-02-03 13:11:00,68.0,31.0,-100.00,NNW,328,5.0,13.0,25,0.00,,,0.00,722.000000,,2013-02-03 19:11:00,
2013-02-03 13:22:00,68.0,31.0,-100.00,NNW,328,5.0,13.0,25,0.00,,,0.00,722.000000,,2013-02-03 19:22:00,
2013-02-03 13:32:00,68.0,31.0,-100.00,NNW,328,5.0,13.0,25,0.00,,,0.00,722.000000,,2013-02-03 19:32:00,
2013-02-03 13:42:00,68.0,31.0,-100.00,NNW,328,5.0,13.0,25,0.00,,,0.00,722.000000,,2013-02-03 19:42:00,
2013-02-03 13:51:00,69.0,30.0,-100.00,NW,318,5.0,12.0,23,0.00,,,0.00,669.000000,,2013-02-03 19:51:00,
2013-02-03 14:12:00,69.0,30.0,-100.00,NW,318,5.0,12.0,23,0.00,,,0.00,669.000000,,2013-02-03 20:12:00,
2013-02-03 14:21:00,69.0,30.0,-100.00,NW,318,5.0,12.0,23,0.00,,,0.00,669.000000,,2013-02-03 20:21:00,
2013-02-03 14:33:00,69.0,30.0,-100.00,NW,318,5.0,12.0,23,0.00,,,0.00,669.000000,,2013-02-03 20:33:00,
2013-02-03 14:42:00,69.0,30.0,-100.00,NW,318,5.0,12.0,23,0.00,,,0.00,669.000000,,2013-02-03 20:42:00,
2013-02-03 14:51:00,67.0,41.0,-100.00,West,259,5.0,13.0,38,0.00,,,0.00,542.000000,,2013-02-03 20:51:00,
2013-02-03 15:11:00,67.0,41.0,-100.00,West,259,5.0,13.0,38,0.00,,,0.00,542.000000,,2013-02-03 21:11:00,
2013-02-03 15:21:00,67.0,41.0,-100.00,West,259,5.0,13.0,38,0.00,,,0.00,542.000000,,2013-02-03 21:21:00,
2013-02-03 15:32:00,67.0,41.0,-100.00,West,259,5.0,13.0,38,0.00,,,0.00,542.000000,,2013-02-03 21:32:00,
2013-02-03 15:42:00,67.0,41.0,-100.00,West,259,5.0,13.0,38,0.00,,,0.00,542.000000,,2013-02-03 21:42:00,
2013-02-03 15:51:00,67.0,41.0,-100.00,WSW,251,1.0,10.0,39,0.00,,,0.00,400.000000,,2013-02-03 21:51:00,
2013-02-03 16:21:00,67.0,41.0,-100.00,WSW,251,1.0,10.0,39,0.00,,,0.00,400.000000,,2013-02-03 22:21:00,
2013-02-03 16:32:00,67.0,41.0,-100.00,WSW,251,1.0,10.0,39,0.00,,,0.00,400.000000,,2013-02-03 22:32:00,
2013-02-03 16:42:00,67.0,41.0,-100.00,WSW,251,1.0,10.0,39,0.00,,,0.00,400.000000,,2013-02-03 22:42:00,
2013-02-03 16:51:00,62.0,44.0,-100.00,SW,231,1.0,9.0,52,0.00,,,0.00,199.000000,,2013-02-03 22:51:00,
2013-02-03 17:22:00,62.0,44.0,-100.00,SW,231,1.0,9.0,52,0.00,,,0.00,199.000000,,2013-02-03 23:22:00,
2013-02-03 17:32:00,62.0,44.0,-100.00,SW,231,1.0,9.0,52,0.00,,,0.00,199.000000,,2013-02-03 23:32:00,
2013-02-03 17:42:00,62.0,44.0,-100.00,SW,231,1.0,9.0,52,0.00,,,0.00,199.000000,,2013-02-03 23:42:00,
2013-02-03 17:51:00,56.0,47.0,-100.00,WSW,248,1.0,10.0,72,0.00,,,0.00,11.000000,,2013-02-03 23:51:00,
2013-02-03 18:11:00,56.0,47.0,-100.00,WSW,248,1.0,10.0,72,0.00,,,0.00,11.000000,,2013-02-04 00:11:00,
2013-02-03 18:22:00,56.0,47.0,-100.00,WSW,248,1.0,10.0,72,0.00,,,0.00,11.000000,,2013-02-04 00:22:00,
2013-02-03 18:32:00,56.0,47.0,-100.00,WSW,248,1.0,10.0,72,0.00,,,0.00,11.000000,,2013-02-04 00:32:00,
2013-02-03 18:41:00,56.0,47.0,-100.00,WSW,248,1.0,10.0,72,0.00,,,0.00,11.000000,,2013-02-04 00:41:00,
2013-02-03 18:51:00,50.0,48.0,-100.00,SW,215,1.0,3.0,92,0.00,,,0.00,0.000000,,2013-02-04 00:51:00,
2013-02-03 19:11:00,50.0,48.0,-100.00,SW,215,1.0,3.0,92,0.00,,,0.00,0.000000,,2013-02-04 01:11:00,
2013-02-03 19:21:00,50.0,48.0,-100.00,SW,215,1.0,3.0,92,0.00,,,0.00,0.000000,,2013-02-04 01:21:00,
2013-02-03 19:32:00,50.0,48.0,-100.00,SW,215,1.0,3.0,92,0.00,,,0.00,0.000000,,2013-02-04 01:32:00,
2013-02-03 19:41:00,50.0,48.0,-100.00,SW,215,1.0,3.0,92,0.00,,,0.00,0.000000,,2013-02-04 01:41:00,
2013-02-03 19:51:00,47.0,47.0,-100.00,SW,214,1.0,3.0,100,0.00,,,0.00,0.000000,,2013-02-04 01:51:00,
2013-02-03 20:11:00,47.0,47.0,-100.00,SW,214,1.0,3.0,100,0.00,,,0.00,0.000000,,2013-02-04 02:11:00,
2013-02-03 20:21:00,47.0,47.0,-100.00,SW,214,1.0,3.0,100,0.00,,,0.00,0.000000,,2013-02-04 02:21:00,
2013-02-03 20:32:00,47.0,47.0,-100.00,SW,214,1.0,3.0,100,0.00,,,0.00,0.000000,,2013-02-04 02:32:00,
2013-02-03 20:41:00,47.0,47.0,-100.00,SW,214,1.0,3.0,100,0.00,,,0.00,0.000000,,2013-02-04 02:41:00,
2013-02-03 20:51:00,44.0,44.0,-100.00,WSW,241,0.0,3.0,100,0.00,,,0.00,0.000000,,2013-02-04 02:51:00,
2013-02-03 21:11:00,44.0,44.0,-100.00,WSW,241,0.0,3.0,100,0.00,,,0.00,0.000000,,2013-02-04 03:11:00,
2013-02-03 21:21:00,44.0,44.0,-100.00,WSW,241,0.0,3.0,100,0.00,,,0.00,0.000000,,2013-02-04 03:21:00,
2013-02-03 21:32:00,44.0,44.0,-100.00,WSW,241,0.0,3.0,100,0.00,,,0.00,0.000000,,2013-02-04 03:32:00,
2013-02-03 21:42:00,44.0,44.0,-100.00,WSW,241,0.0,3.0,100,0.00,,,0.00,0.000000,,2013-02-04 03:42:00,
2013-02-03 21:51:00,43.0,43.0,-100.00,West,268,1.0,2.0,100,0.00,,,0.00,0.000000,,2013-02-04 03:51:00,
2013-02-03 22:11:00,43.0,43.0,-100.00,West,268,1.0,2.0,100,0.00,,,0.00,0.000000,,2013-02-04 04:11:00,
2013-02-03 22:21:00,43.0,43.0,-100.00,West,268,1.0,2.0,100,0.00,,,0.00,0.000000,,2013-02-04 04:21:00,
2013-02-03 22:32:00,43.0,43.0,-100.00,West,268,1.0,2.0,100,0.00,,,0.00,0.000000,,2013-02-04 04:32:00,
2013-02-03 22:41:00,43.0,43.0,-100.00,West,268,1.0,2.0,100,0.00,,,0.00,0.000000,,2013-02-04 04:41:00,
2013-02-03 22:51:00,43.0,43.0,-100.00,SSE,150,0.0,3.0,100,0.00,,,0.00,0.000000,,2013-02-04 04:51:00,
2013-02-03 23:22:00,43.0,43.0,-100.00,SSE,150,0.0,3.0,100,0.00,,,0.00,0.000000,,2013-02-04 05:22:00,
2013-02-03 23:33:00,43.0,43.0,-100.00,SSE,150,0.0,3.0,100,0.00,,,0.00,0.000000,,2013-02-04 05:33:00,
2013-02-03 23:42:00,43.0,43.0,-100.00,SSE,150,0.0,3.0,100,0.00,,,0.00,0.000000,,2013-02-04 05:42:00,
2013-02-03 23:51:00,41.0,41.0,-100.00,NNW,348,0.0,4.0,100,0.00,,,0.00,0.000000,,2013-02-04 05:51:00,